CAPE
0 0 0 0 0 0 0 0 0 0 0 0 0 0 18 24 51 254 150 240 283 295 265 315 348 371 370 403 330 346 442 591
0 0 0 0 0 0 0 0 0 0 0 0 0 2 13 24 163 378 207 354 359 358 344 321 407 533 646 662 579 560 706 908
0 0 0 0 0 0 0 0 0 0 0 0 0 0 1 25 16 144 471 423 516 516 471 522 628 823 857 876 891 980 1084 1084
0 0 0 0 0 0 0 0 0 0 0 0 0 0 0 0 0 38 518 595 672 730 721 760 858 1040 1062 1077 1101 1107 1229 1215
0 0 0 0 0 0 0 0 0 0 0 0 0 0 0 0 0 0 189 491 778 807 880 973 1069 1126 1197 1180 1228 1259 1316 1348
0 0 0 0 0 0 0 0 0 0 0 0 0 0 0 0 0 0 159 483 668 769 889 994 1121 1174 1234 1215 1256 1252 1299 1368
0 0 0 0 0 0 0 0 0 0 0 0 0 0 0 0 0 0 35 313 572 728 806 847 932 1137 1203 1235 1250 1257 1252 1310
0 0 0 0 0 0 0 0 0 0 0 247 125 49 59 37 0 0 89 347 557 776 874 895 906 1030 1164 1204 1232 1237 1256 1297
0 0 0 0 0 0 0 7 17 0 389 486 585 723 652 174 248 380 466 461 433 666 767 838 902 973 1075 1091 1048 1061 911 621
0 0 0 0 20 179 75 232 404 487 585 791 958 1149 1214 1331 1262 1326 1368 1288 1240 1291 1137 647 745 891 726 636 671 643 478 267
0 0 0 164 222 129 47 137 88 69 119 669 409 151 706 1378 1132 891 800 715 541 465 893 718 546 352 379 324 318 279 218 169
0 0 0 108 80 18 101 60 221 92 22 35 25 0 14 1389 1190 979 610 356 297 327 305 245 138 121 180 134 119 115 92 98
0 0 0 0 84 18 0 0 128 71 56 0 1 16 463 1394 915 533 360 335 283 242 198 56 13 14 27 0 10 0 0 0
0 0 0 43 81 57 0 143 119 146 77 4 38 481 998 921 473 210 97 151 226 254 79 9 15 68 41 11 0 1 40 6
0 0 0 4 6 0 91 127 193 95 232 386 521 975 1025 633 280 60 0 0 6 44 0 0 0 1 0 0 0 56 0 0
3 69 75 85 40 67 89 229 442 513 400 705 853 1070 780 345 64 0 0 0 0 0 0 0 0 0 0 0 0 34 0 0
54 78 113 75 291 518 678 803 692 831 885 884 885 714 375 85 0 0 0 0 0 0 0 0 0 0 0 0 0 0 4 0
64 104 60 175 589 735 590 568 600 565 752 867 729 493 249 55 0 0 0 0 0 0 0 8 22 15 0 0 2 14 32 33
152 36 67 187 746 782 562 697 757 605 485 458 603 427 218 63 0 0 0 0 2 4 0 0 0 0 0 0 2 25 0 0
CIN
0 0 0 0 0 0 0 0 0 0 0 0 0 -30 -246 -240 -261 -183 -222 -276 -340 -381 -378 -328 -289 -295 -280 -266 -216 -170 -174 -158
0 0 0 0 0 0 0 0 0 0 0 0 0 -85 -163 -154 -119 -141 -215 -279 -338 -382 -406 -409 -322 -292 -294 -287 -245 -204 -185 -170
0 0 0 0 0 0 0 0 0 0 0 0 0 0 -37 -126 -164 -150 -160 -225 -263 -373 -423 -416 -376 -324 -282 -285 -269 -205 -180 -150
0 0 0 0 0 0 0 0 0 0 0 0 0 0 0 -10 0 -195 -209 -243 -289 -336 -375 -406 -338 -314 -277 -261 -233 -179 -143 -141
0 0 0 0 0 0 0 0 0 0 0 0 0 0 0 0 0 0 -239 -249 -277 -321 -311 -327 -334 -327 -279 -266 -224 -213 -179 -150
0 0 0 0 0 0 0 0 0 0 0 0 0 0 0 0 0 0 -271 -259 -249 -269 -324 -359 -323 -308 -306 -253 -257 -232 -200 -180
0 0 0 0 0 0 0 0 0 0 0 0 0 0 0 0 0 0 -269 -256 -299 -292 -358 -422 -420 -365 -335 -314 -281 -271 -245 -179
0 0 0 0 0 0 0 0 0 0 0 -341 -369 -354 -262 -274 -4 0 -304 -282 -339 -408 -398 -380 -390 -390 -361 -319 -296 -295 -233 -206
0 0 0 0 0 0 0 -71 -72 0 -218 -302 -237 -237 -255 -277 -308 -284 -284 -243 -238 -241 -273 -307 -345 -393 -367 -388 -406 -335 -297 -357
0 0 0 0 -205 -237 -198 -238 -253 -230 -228 -197 -196 -255 -269 -296 -252 -227 -234 -229 -244 -247 -269 -390 -431 -449 -542 -579 -493 -436 -416 -435
0 0 0 -253 -229 -185 -174 -190 -299 -300 -281 -204 -214 -247 -173 -262 -292 -291 -319 -364 -397 -440 -368 -419 -551 -655 -614 -591 -527 -476 -437 -343
0 0 0 -194 -239 -339 -216 -132 -255 -254 -277 -216 -174 0 -151 -236 -284 -290 -395 -491 -527 -595 -660 -682 -757 -748 -610 -541 -491 -423 -419 -350
0 0 0 0 -255 -312 0 0 -252 -268 -235 0 -18 -229 -279 -277 -338 -432 -464 -476 -583 -624 -638 -715 -721 -609 -544 0 -442 0 0 0
0 0 0 -325 -247 -76 0 -315 -266 -259 -270 -93 -175 -275 -247 -249 -290 -347 -438 -525 -536 -475 -556 -230 -385 -357 -352 -310 0 -108 -250 -114
0 0 0 -471 -54 -20 -335 -234 -264 -278 -261 -214 -219 -185 -184 -211 -266 -373 0 0 -269 -506 -59 0 0 -38 0 0 0 -141 0 0
-11 -369 -359 -329 -449 -392 -385 -254 -260 -233 -236 -195 -137 -137 -177 -259 -356 0 0 0 0 0 0 0 0 0 0 0 0 -115 0 -2
-350 -438 -361 -394 -303 -285 -279 -252 -234 -213 -176 -149 -126 -152 -219 -302 0 0 0 0 0 0 0 0 0 0 0 0 0 0 -34 0
-182 -284 -289 -294 -305 -292 -249 -233 -220 -188 -186 -174 -158 -176 -247 -275 0 0 0 0 0 0 0 -157 -168 -197 0 0 -85 -65 -52 -39
-203 -439 -345 -363 -291 -257 -224 -214 -209 -186 -188 -170 -189 -193 -216 -234 0 0 0 0 -199 -211 -7 0 0 -5 0 -38 -68 -75 -2 0
Wind_Speed
14 7 10 17 19 15 14 11 9 10 10 9 12 14 14 13 13 12 14 14 14 15 18 17 16 16 18 17 19 19 19 20
8 11 14 19 16 17 15 12 10 11 9 10 10 12 13 14 14 13 14 14 14 16 16 17 18 16 15 16 19 19 19 20
17 15 17 19 20 16 15 12 11 10 10 11 14 14 14 14 13 13 14 15 15 15 16 16 17 16 15 14 16 18 18 17
5 13 14 14 17 10 16 12 10 11 10 11 13 13 12 12 11 11 12 13 14 15 15 15 15 16 14 13 14 16 15 14
14 14 12 17 12 9 11 12 10 12 11 12 11 10 10 10 10 9 9 10 11 11 11 12 12 12 11 11 12 12 9 7
9 10 12 16 18 12 10 8 11 11 10 19 19 16 9 7 7 7 6 7 8 9 9 9 9 9 9 8 10 9 9 8
16 7 8 16 19 14 7 7 10 14 13 24 23 22 16 14 11 8 4 4 4 7 6 4 4 3 3 5 6 6 5 5
9 14 13 16 17 13 14 13 17 15 18 23 22 20 18 19 18 16 12 9 10 12 9 4 2 2 3 4 3 3 5 6
13 16 14 15 20 15 14 14 13 15 14 18 22 24 23 20 20 20 20 17 15 11 8 7 7 6 7 7 7 8 9 11
16 14 20 20 16 9 9 13 13 13 14 17 20 21 23 23 23 22 22 23 22 21 16 11 10 9 9 10 11 10 11 12
17 19 19 13 4 8 11 12 12 12 13 12 16 20 22 23 23 23 23 24 25 26 23 19 15 14 13 12 11 11 14 15
18 19 20 9 6 8 8 12 10 11 15 15 16 21 20 21 22 23 24 25 27 28 26 23 21 18 14 12 14 17 20 22
17 19 19 12 8 5 12 14 7 11 15 17 19 18 18 21 23 24 26 28 27 27 26 23 19 15 15 16 17 18 20 23
18 18 19 5 7 9 10 8 8 12 15 18 19 19 20 22 24 25 26 26 25 25 24 22 20 17 18 20 19 22 21 22
21 19 15 7 12 9 7 8 9 13 15 16 17 17 18 22 23 24 25 24 22 23 23 23 21 18 19 20 21 21 21 23
16 16 9 4 5 5 7 9 11 13 15 16 16 16 19 20 21 22 23 23 22 23 24 23 21 21 22 22 22 20 19 19
16 9 4 6 4 5 8 10 12 14 15 15 15 17 18 18 20 20 21 22 22 22 21 21 21 23 22 20 24 21 17 16
20 9 13 3 2 4 6 8 11 12 15 16 17 18 17 17 17 18 20 21 22 22 22 22 24 25 24 23 22 20 18 17
14 7 4 2 2 4 6 7 10 13 15 15 17 16 16 16 15 17 19 20 20 21 22 22 23 24 24 24 23 22 19 19
Wind_Direction
115 48 84 162 180 166 185 189 190 193 176 190 209 212 110 110 97 103 125 127 124 138 157 157 156 158 164 167 178 180 182 181
11 337 311 173 123 175 185 172 171 168 185 159 194 170 116 117 129 124 113 104 112 132 143 155 163 161 157 165 173 177 179 178
280 294 158 168 178 217 131 162 137 145 175 158 191 178 149 141 140 126 111 103 109 124 137 145 151 151 154 156 162 170 170 170
53 324 316 287 167 127 185 183 131 128 184 151 169 177 162 164 151 122 95 103 108 119 130 137 150 155 155 155 160 169 166 167
296 311 313 278 343 21 7 32 111 76 145 152 177 166 152 161 161 124 102 96 92 112 126 134 146 153 155 155 162 163 157 161
294 320 320 299 302 342 344 44 56 87 105 297 292 263 183 107 80 97 96 88 86 91 123 133 145 146 148 155 167 172 171 178
289 314 332 311 302 328 4 7 8 9 38 314 283 343 19 25 32 38 55 75 76 43 47 95 62 87 121 164 176 179 186 208
281 294 307 307 307 320 326 336 326 349 346 342 350 9 7 2 8 9 8 2 359 1 11 22 350 297 270 275 264 267 292 302
274 289 305 313 295 309 322 332 350 342 10 7 1 360 359 2 3 1 359 354 350 347 349 341 323 301 284 286 303 305 311 320
274 289 289 302 308 338 6 356 19 32 20 18 19 18 12 8 8 6 2 357 355 353 349 337 328 317 313 303 297 292 293 305
279 285 297 314 358 331 329 337 11 22 14 23 22 10 5 3 5 4 1 359 355 352 346 342 338 334 326 321 314 306 296 297
281 285 286 297 304 339 359 331 8 18 14 17 4 349 357 358 358 355 352 349 345 345 346 344 339 334 333 335 332 323 316 310
281 284 292 291 313 349 315 329 27 14 6 3 356 358 357 351 348 346 345 343 347 350 351 354 358 3 359 348 343 339 334 330
275 282 288 302 315 309 335 35 32 7 1 355 355 354 351 348 347 349 348 349 354 0 6 9 10 7 0 354 355 348 351 349
268 276 291 290 310 334 58 56 22 5 0 1 1 360 359 355 353 353 358 2 9 10 7 5 6 5 2 3 1 359 3 3
274 283 290 327 11 16 38 26 20 11 5 4 5 4 358 360 1 2 5 9 20 19 19 23 26 11 9 5 1 0 6 6
273 275 310 319 7 49 39 31 17 8 7 10 10 3 3 6 6 14 17 19 24 23 25 22 13 4 4 6 357 2 16 26
260 223 286 247 88 54 35 17 13 11 3 0 358 2 7 10 19 20 18 23 25 26 27 20 10 7 12 18 20 19 22 15
264 254 277 134 67 12 22 10 3 1 360 1 360 8 14 16 22 21 23 25 24 23 26 15 9 8 9 15 23 24 23 18